Weather in Montélimar

France     44°33′17″N   4°44′57″E
temp.,
°C
wind,
m/s
gust,
m/s
humid.,
%
clouds,
%
prec.,
mm/h
press.,
hPa
HPBL,
m
13 april, tue
tue1323:00+6n1118470 0.0 10241348
02:00+5n1018510 0.0 10251276
05:00+4n1018550 0.0 10251144
08:00+4n1019601 0.0 10241086
11:00+8n1118500 0.0 10241327
14:00+12n1116394 0.0 10231513
17:00+12n10144038 0.0 10221445
20:00+9n81448100 0.0 10231012
14 april, wed
wed1423:00+7nne7155766 0.0 1024843
02:00+4n512715 0.0 1024479
05:00+2nne4107910 0.0 1024314
08:00+2nne41176100 0.0 1025393
11:00+7nne6956100 0.0 1024726
14:00+12nne78400 0.0 10221149
17:00+12nne811370 0.0 10201188
20:00+10n713450 0.0 1021835
15 april, thu
thu1523:00+7n513520 0.0 1022595
02:00+4nne512650 0.0 1022453
05:00+2n511740 0.0 1022404
08:00+2nne413743 0.0 1022515
11:00+7nne711554 0.0 1022887
14:00+12nne79400 0.0 10201305
17:00+13nne89370 0.0 10171232
20:00
16 april, fri
fri1623:00+6n39605 0.0 1019305
02:00+4nne3468100 0.0 1019103
05:00+2nne367373 0.0 1018130
08:00+3nne487483 0.0 1018242
11:00+8nne575596 0.0 1017714
14:00+12nne554498 0.0 10151218
17:00+12ne6750100 0.1 10141383
20:00+10ene2563100 0.3 1016279
17 april, sat
sat1723:00+8nne4115798 0.0 1017606
02:00+6nne51265100 0.0 1017606
05:00+4nne5127343 0.0 1017533
08:00+3nne613775 0.0 1018592
11:00+7nne912589 0.0 1017958
14:00+11nne912460 0.0 10161346
17:00+12nne9134310 0.0 10141579
20:00+10n7135097 0.0 10151233